EA1FJG Weather Reports


Display with metric or nautical units.
time (UTC)temp
F
wind
direction
speed
MPH
gust
MPH
rain 1hr
in
rain 24hr
in
rain mn
in
humidity
%
barometer
mb
20260502163503 56 13 2.0 4.0 0.01 0.27 0.27 98 1015.0
20260502163403 56 12 2.0 4.0 0.01 0.27 0.27 98 1015.1
20260502163303 56 10 2.0 4.0 0.01 0.27 0.27 98 1014.9
20260502163203 56 10 1.0 4.0 0.01 0.27 0.27 98 1014.9
20260502163103 56 14 1.0 4.0 0.01 0.27 0.27 98 1015.0
20260502163024 56 13 1.0 4.0 0.01 0.27 0.27 98 1015.0
20260502162903 57 9 2.0 4.0 0.01 0.27 0.27 98 1015.0
20260502162803 57 10 1.0 4.0 0.01 0.27 0.27 98 1015.1
20260502162703 57 9 1.0 4.0 0.01 0.27 0.27 98 1015.1
20260502162603 57 6 1.0 4.0 0.01 0.27 0.27 98 1015.1
20260502162503 57 6 1.0 4.0 0.01 0.27 0.27 98 1015.1
20260502162403 57 6 2.0 4.0 0.00 0.26 0.26 98 1015.1
20260502162304 57 5 2.0 4.0 0.00 0.26 0.26 98 1015.1
20260502162203 57 5 2.0 4.0 0.01 0.26 0.26 98 1015.1
20260502162103 57 5 2.0 4.0 0.01 0.26 0.26 98 1015.0
20260502162024 57 5 2.0 4.0 0.01 0.26 0.26 98 1014.9
20260502161903 57 5 2.0 4.0 0.01 0.26 0.26 98 1015.0
20260502161803 57 6 2.0 4.0 0.01 0.26 0.26 98 1015.0
20260502161703 57 1 2.0 7.0 0.01 0.26 0.26 98 1015.0
20260502161603 58 1 3.0 7.0 0.01 0.26 0.26 98 1014.9
20260502161503 58 1 3.0 7.0 0.01 0.26 0.26 98 1015.2
20260502161403 58 359 3.0 7.0 0.01 0.26 0.26 98 1014.8
20260502161303 58 359 3.0 7.0 0.01 0.26 0.26 98 1014.9
20260502161224 58 360 3.0 7.0 0.01 0.26 0.26 98 1015.1
20260502161103 58 359 2.0 7.0 0.01 0.26 0.26 98 1014.9
20260502161024 58 359 2.0 7.0 0.01 0.26 0.26 98 1014.9
20260502160903 58 354 3.0 7.0 0.01 0.26 0.26 98 1015.1
20260502160803 58 356 3.0 7.0 0.01 0.26 0.26 98 1015.1
20260502160703 58 1 2.0 4.0 0.01 0.26 0.26 98 1015.0
20260502160603 58 1 2.0 4.0 0.01 0.26 0.26 98 1015.0
20260502160503 58 1 2.0 4.0 0.01 0.26 0.26 98 1014.9
20260502160403 58 1 2.0 4.0 0.01 0.26 0.26 98 1015.1
20260502160303 58 1 2.0 4.0 0.01 0.26 0.26 98 1015.1
20260502160203 58 1 2.0 4.0 0.01 0.26 0.26 98 1015.1
20260502152305 58 3 2.0 6.0 0.25 0.26 0.26 97 1015.2
20260502152203 58 3 2.0 6.0 0.24 0.25 0.25 97 1015.3
20260502152105 58 6 2.0 4.0 0.24 0.25 0.25 97 1015.4
20260502152025 58 6 2.0 4.0 0.24 0.25 0.25 97 1015.4
20260502151904 58 3 2.0 6.0 0.24 0.25 0.25 97 1015.2
20260502151825 58 3 2.0 6.0 0.24 0.25 0.25 97 1015.2
20260502151727 58 2 3.0 7.0 0.24 0.25 0.25 97 1015.3
20260502151624 59 5 3.0 7.0 0.24 0.25 0.25 97 1015.3
20260502151504 59 4 3.0 7.0 0.24 0.25 0.25 97 1015.4
20260502151403 58 1 3.0 7.0 0.24 0.25 0.25 97 1015.2
20260502151303 58 2 3.0 7.0 0.24 0.25 0.25 97 1015.2
20260502151203 58 2 3.0 7.0 0.24 0.25 0.25 96 1015.3
20260502151103 58 2 3.0 7.0 0.24 0.25 0.25 96 1015.3
20260502151003 58 2 3.0 7.0 0.24 0.25 0.25 96 1015.3
20260502150903 58 2 3.0 7.0 0.24 0.25 0.25 96 1015.3
20260502150803 58 1 3.0 7.0 0.24 0.25 0.25 96 1015.4
20260502150703 58 2 2.0 4.0 0.24 0.25 0.25 96 1015.3
20260502150603 58 2 2.0 4.0 0.24 0.25 0.25 96 1015.3
20260502150503 58 2 2.0 4.0 0.24 0.25 0.25 96 1015.3
20260502150403 58 5 2.0 4.0 0.24 0.25 0.25 95 1015.5
20260502150324 58 5 2.0 4.0 0.24 0.25 0.25 95 1015.5
20260502150204 58 5 2.0 4.0 0.24 0.25 0.25 95 1015.5
20260502150124 58 6 2.0 4.0 0.24 0.25 0.25 95 1015.6
20260502130703 64 326 3.0 7.0 0.00 0.01 0.01 78 1015.7
20260502130624 64 326 3.0 7.0 0.00 0.01 0.01 78 1015.7
20260502130503 64 324 2.0 6.0 0.00 0.01 0.01 78 1015.8
20260502130424 64 321 2.0 4.0 0.00 0.01 0.01 78 1015.8
20260502130303 64 326 2.0 4.0 0.00 0.01 0.01 77 1015.6
20260502130203 64 326 2.0 4.0 0.00 0.01 0.01 77 1015.6
20260502130124 64 331 2.0 4.0 0.00 0.01 0.01 77 1015.9
20260502123803 64 347 2.0 6.0 0.00 0.01 0.01 79 1015.8
20260502123703 64 346 3.0 6.0 0.00 0.01 0.01 80 1015.9
20260502123603 64 346 3.0 6.0 0.00 0.01 0.01 81 1015.8
20260502123503 63 345 3.0 6.0 0.00 0.01 0.01 81 1015.8
20260502123424 63 345 3.0 6.0 0.00 0.01 0.01 81 1016.0
20260502123303 63 344 3.0 6.0 0.00 0.01 0.01 81 1015.8
20260502123203 62 343 3.0 6.0 0.00 0.01 0.01 81 1015.8
20260502123103 62 343 3.0 6.0 0.00 0.01 0.01 82 1015.9
20260502123003 62 342 3.0 6.0 0.00 0.01 0.01 82 1015.9
20260502122924 62 342 3.0 6.0 0.00 0.01 0.01 82 1015.9
20260502122803 63 341 3.0 6.0 0.00 0.01 0.01 81 1015.9
20260502122703 63 341 3.0 6.0 0.00 0.01 0.01 81 1015.9
20260502122603 63 339 2.0 6.0 0.00 0.01 0.01 82 1016.0
20260502122503 63 338 2.0 6.0 0.00 0.01 0.01 82 1016.1
20260502122424 63 338 2.0 6.0 0.00 0.01 0.01 82 1015.9
20260502122324 63 337 2.0 6.0 0.00 0.01 0.01 82 1016.0
20260502122203 63 335 2.0 3.0 0.00 0.01 0.01 82 1016.0
20260502122103 63 335 2.0 3.0 0.00 0.01 0.01 82 1016.1
20260502122003 63 334 2.0 3.0 0.00 0.01 0.01 82 1016.1
20260502121903 63 333 2.0 3.0 0.00 0.01 0.01 82 1015.9
20260502121803 63 333 2.0 3.0 0.00 0.01 0.01 82 1016.0
20260502121724 63 334 2.0 4.0 0.00 0.01 0.01 81 1016.1
20260502121603 63 334 2.0 4.0 0.00 0.01 0.01 83 1016.0
20260502121503 63 333 2.0 4.0 0.00 0.01 0.01 83 1016.1
20260502121403 63 331 2.0 4.0 0.00 0.01 0.01 82 1016.0
20260502121303 63 329 2.0 4.0 0.00 0.01 0.01 82 1016.2
20260502121203 63 329 2.0 4.0 0.00 0.01 0.01 83 1016.1
20260502121103 63 328 2.0 4.0 0.00 0.01 0.01 83 1016.1
20260502121003 63 328 2.0 4.0 0.00 0.01 0.01 83 1016.1
20260502120904 63 324 2.0 4.0 0.00 0.01 0.01 83 1016.1
20260502120803 63 314 2.0 6.0 0.00 0.01 0.01 82 1016.0
20260502120703 63 314 2.0 6.0 0.00 0.01 0.01 82 1016.0
20260502120603 63 305 2.0 6.0 0.00 0.01 0.01 82 1016.3
20260502120524 63 293 2.0 6.0 0.00 0.01 0.01 81 1016.2
20260502120403 63 277 2.0 6.0 0.00 0.01 0.01 80 1016.1
20260502120303 64 250 2.0 6.0 0.00 0.01 0.01 80 1016.2
20260502120203 64 234 2.0 6.0 0.00 0.01 0.01 80 1016.3
20260502120125 64 235 2.0 6.0 0.00 0.01 0.01 79 1016.2
20260502115903 64 220 2.0 6.0 0.00 0.01 0.01 78 1016.2
20260502115803 64 214 2.0 6.0 0.00 0.01 0.01 76 1016.1
20260502115703 64 230 2.0 6.0 0.00 0.01 0.01 76 1016.2
20260502115603 64 222 2.0 6.0 0.00 0.01 0.01 75 1016.2
20260502115503 65 226 2.0 6.0 0.00 0.01 0.01 74 1016.1
20260502115403 65 248 2.0 6.0 0.00 0.01 0.01 73 1016.2
20260502115305 65 271 2.0 3.0 0.00 0.01 0.01 74 1016.1
20260502115202 65 267 1.0 3.0 0.00 0.01 0.01 74 1016.1
20260502115103 65 267 1.0 3.0 0.00 0.01 0.01 74 1016.1
20260502115003 65 265 1.0 3.0 0.00 0.01 0.01 73 1016.3
20260502114924 65 261 1.0 3.0 0.00 0.01 0.01 73 1016.2
20260502114803 65 257 1.0 3.0 0.00 0.01 0.01 72 1016.2
20260502114702 65 271 1.0 4.0 0.00 0.01 0.01 74 1016.2
20260502114524 65 261 2.0 4.0 0.00 0.01 0.01 74 1016.4
20260502114424 65 247 2.0 4.0 0.00 0.01 0.01 74 1016.4
20260502114324 65 220 2.0 4.0 0.00 0.01 0.01 74 1016.3
20260502114203 65 178 2.0 4.0 0.00 0.01 0.01 74 1016.1
20260502114103 65 151 2.0 4.0 0.00 0.01 0.01 76 1016.4
20260502114024 64 142 2.0 4.0 0.00 0.01 0.01 77 1016.3
20260502113902 64 137 2.0 4.0 0.00 0.01 0.01 76 1016.3
20260502113803 64 124 2.0 4.0 0.00 0.01 0.01 75 1016.2
20260502113703 65 121 2.0 3.0 0.00 0.01 0.01 76 1016.4
20260502113603 64 118 2.0 3.0 0.00 0.01 0.01 76 1016.4
20260502113524 64 118 2.0 3.0 0.00 0.01 0.01 76 1016.4
20260502113403 64 124 2.0 3.0 0.00 0.01 0.01 77 1016.3
20260502113303 64 129 2.0 3.0 0.00 0.01 0.01 77 1016.2
20260502113203 64 148 2.0 4.0 0.00 0.01 0.01 76 1016.2
20260502113102 64 163 2.0 6.0 0.00 0.01 0.01 75 1016.3
20260502113003 64 162 2.0 6.0 0.00 0.01 0.01 75 1016.3
20260502112902 64 156 2.0 6.0 0.00 0.01 0.01 74 1016.3
20260502112803 64 145 2.0 6.0 0.00 0.01 0.01 74 1016.3
20260502112703 64 150 2.0 6.0 0.00 0.01 0.01 75 1016.4
20260502112624 64 146 2.0 6.0 0.00 0.01 0.01 74 1016.3
20260502112503 64 141 2.0 6.0 0.00 0.01 0.01 73 1016.1
20260502112403 64 125 2.0 6.0 0.00 0.01 0.01 72 1016.3
20260502112305 64 110 2.0 6.0 0.00 0.01 0.01 73 1016.2
20260502112203 64 98 2.0 6.0 0.00 0.01 0.01 73 1016.2
20260502112102 64 83 2.0 3.0 0.00 0.01 0.01 75 1016.3
20260502112003 64 86 2.0 3.0 0.00 0.01 0.01 75 1016.3
20260502111903 64 86 2.0 3.0 0.00 0.01 0.01 75 1016.3
20260502111824 64 86 2.0 6.0 0.00 0.01 0.01 74 1016.4
20260502111702 64 86 2.0 6.0 0.00 0.01 0.01 75 1016.1
20260502111603 64 86 2.0 6.0 0.00 0.01 0.01 74 1016.4
20260502111524 64 86 2.0 6.0 0.00 0.01 0.01 75 1016.3
20260502111403 64 86 2.0 6.0 0.00 0.01 0.01 75 1016.4
20260502111303 64 85 2.0 6.0 0.00 0.01 0.01 75 1016.4
20260502111203 64 85 2.0 6.0 0.00 0.01 0.01 75 1016.4
20260502111103 64 85 2.0 6.0 0.00 0.01 0.01 74 1016.3
20260502111003 64 85 2.0 6.0 0.00 0.01 0.01 73 1016.4
20260502110902 64 85 2.0 6.0 0.00 0.01 0.01 73 1016.3
20260502110803 64 84 2.0 4.0 0.00 0.01 0.01 74 1016.3
20260502110703 64 84 2.0 4.0 0.00 0.01 0.01 73 1016.3
20260502110603 64 84 2.0 4.0 0.00 0.01 0.01 76 1016.4
20260502110502 64 84 2.0 4.0 0.00 0.01 0.01 76 1016.4
20260502110403 64 84 2.0 4.0 0.00 0.01 0.01 75 1016.3
20260502110303 64 84 2.0 4.0 0.00 0.01 0.01 75 1016.4
20260502110202 64 84 2.0 3.0 0.00 0.01 0.01 73 1016.4
20260502110003 64 82 2.0 3.0 0.00 0.01 0.01 72 1016.4
20260502105924 64 82 2.0 3.0 0.00 0.01 0.01 72 1016.4
20260502105802 64 81 2.0 3.0 0.00 0.01 0.01 74 1016.4
20260502105703 64 80 2.0 3.0 0.00 0.01 0.01 74 1016.5
20260502105603 64 80 2.0 4.0 0.00 0.01 0.01 73 1016.4
20260502105503 64 80 2.0 6.0 0.00 0.01 0.01 73 1016.2
20260502105403 64 80 2.0 6.0 0.00 0.01 0.01 74 1016.5
20260502105324 65 79 2.0 6.0 0.00 0.01 0.01 72 1016.6
20260502105203 65 77 2.0 6.0 0.00 0.01 0.01 74 1016.5
20260502105103 65 76 2.0 6.0 0.00 0.01 0.01 74 1016.3
20260502105003 65 75 2.0 6.0 0.00 0.01 0.01 75 1016.3
20260502104903 65 75 2.0 6.0 0.00 0.01 0.01 77 1016.6
20260502104824 65 75 2.0 6.0 0.00 0.01 0.01 77 1016.6
20260502104724 64 74 2.0 6.0 0.00 0.01 0.01 77 1016.5
20260502104603 64 74 2.0 6.0 0.00 0.01 0.01 78 1016.3
20260502104503 64 72 2.0 6.0 0.00 0.01 0.01 78 1016.5
20260502104403 65 68 1.0 4.0 0.00 0.01 0.01 77 1016.6
20260502104324 65 69 2.0 4.0 0.00 0.01 0.01 76 1016.5
20260502104203 64 67 1.0 3.0 0.00 0.01 0.01 76 1016.5
20260502104103 64 70 2.0 4.0 0.00 0.01 0.01 77 1016.5
20260502104024 64 70 1.0 4.0 0.00 0.01 0.01 77 1016.6
20260502103924 64 70 1.0 4.0 0.00 0.01 0.01 77 1016.6
20260502103803 64 73 2.0 4.0 0.00 0.01 0.01 78 1016.4
20260502103703 64 73 2.0 4.0 0.00 0.01 0.01 78 1016.6
20260502103603 64 72 1.0 4.0 0.00 0.01 0.01 77 1016.5
20260502103503 64 73 1.0 4.0 0.00 0.01 0.01 76 1016.6
20260502103402 65 73 1.0 4.0 0.00 0.01 0.01 78 1016.5
20260502103302 64 70 1.0 4.0 0.00 0.01 0.01 77 1016.5
20260502103203 64 70 1.0 4.0 0.00 0.01 0.01 78 1016.7
20260502103103 64 66 1.0 3.0 0.00 0.01 0.01 77 1016.5
20260502103003 64 71 1.0 3.0 0.00 0.01 0.01 76 1016.7
20260502102924 64 71 1.0 3.0 0.00 0.01 0.01 76 1016.7
20260502102803 64 72 1.0 4.0 0.00 0.01 0.01 79 1016.6
20260502102703 64 71 1.0 4.0 0.00 0.01 0.01 79 1016.8
20260502102624 64 71 1.0 4.0 0.00 0.01 0.01 79 1016.8
20260502102503 64 73 1.0 4.0 0.00 0.01 0.01 79 1016.6
20260502102402 63 73 1.0 4.0 0.00 0.01 0.01 79 1016.8
20260502102324 63 73 1.0 4.0 0.00 0.01 0.01 79 1016.7
20260502102203 63 74 1.0 4.0 0.00 0.01 0.01 79 1016.8
20260502102103 63 75 1.0 4.0 0.00 0.01 0.01 78 1016.6
20260502102003 65 75 1.0 4.0 0.00 0.01 0.01 76 1016.7
20260502101903 65 72 1.0 4.0 0.00 0.01 0.01 76 1016.9
20260502101803 66 58 0.0 2.0 0.00 0.01 0.01 76 1017.0
20260502101603 66 54 0.0 1.0 0.00 0.01 0.01 78 1016.9
20260502101503 66 54 0.0 2.0 0.00 0.01 0.01 79 1016.7
20260502101403 66 54 0.0 2.0 0.00 0.01 0.01 79 1016.8
20260502101324 66 54 0.0 2.0 0.00 0.01 0.01 79 1016.8
20260502101203 66 54 0.0 2.0 0.00 0.01 0.01 79 1016.7
20260502101124 66 54 0.0 2.0 0.00 0.01 0.01 79 1016.7
20260502101003 65 57 1.0 2.0 0.00 0.01 0.01 79 1016.9
20260502100903 64 57 1.0 2.0 0.00 0.01 0.01 79 1016.8
20260502100803 64 57 1.0 2.0 0.00 0.01 0.01 78 1016.9
20260502100724 64 57 1.0 2.0 0.00 0.01 0.01 78 1016.9
20260502100603 64 59 1.0 2.0 0.00 0.01 0.01 79 1016.8
20260502100503 64 59 1.0 2.0 0.00 0.01 0.01 79 1016.9
20260502100403 64 68 1.0 3.0 0.00 0.01 0.01 79 1016.9
20260502100303 64 67 1.0 3.0 0.00 0.01 0.01 79 1017.0
20260502100224 64 72 1.0 4.0 0.00 0.01 0.01 80 1017.1
20260502091503 57 52 0.0 2.0 0.01 0.01 0.01 92 1017.2
20260502091424 57 52 0.0 2.0 0.01 0.01 0.01 92 1017.2
20260502091303 57 56 0.0 2.0 0.01 0.01 0.01 93 1017.2
20260502091203 57 56 0.0 2.0 0.01 0.01 0.01 93 1017.1
20260502091103 57 56 0.0 2.0 0.01 0.01 0.01 93 1017.1
20260502091003 57 56 0.0 2.0 0.01 0.01 0.01 94 1017.1
20260502090903 57 58 0.0 2.0 0.01 0.01 0.01 94 1017.1
20260502090803 57 58 0.0 2.0 0.01 0.01 0.01 94 1017.1
20260502090703 56 58 0.0 2.0 0.01 0.01 0.01 95 1017.2
20260502090603 56 57 0.0 2.0 0.01 0.01 0.01 95 1017.1
20260502090503 57 64 1.0 2.0 0.01 0.01 0.01 95 1017.2
20260502090403 57 64 1.0 2.0 0.01 0.01 0.01 95 1017.2
20260502090303 57 64 0.0 2.0 0.01 0.01 0.01 95 1017.2
20260502090203 57 62 0.0 2.0 0.01 0.01 0.01 96 1017.3
20260502080103 54 51 0.0 1.0 0.00 0.00 0.00 98 1017.1
20260502071503 52 56 2.0 3.0 0.00 0.00 0.00 98 1017.2
20260502071424 52 56 2.0 3.0 0.00 0.00 0.00 98 1017.3
20260502071324 52 55 2.0 3.0 0.00 0.00 0.00 98 1017.3
20260502071203 52 55 2.0 3.0 0.00 0.00 0.00 99 1017.3
20260502071124 52 54 2.0 3.0 0.00 0.00 0.00 98 1017.2
20260502071003 52 53 1.0 3.0 0.00 0.00 0.00 99 1017.3
20260502070903 52 53 1.0 3.0 0.00 0.00 0.00 99 1017.2
20260502070803 52 53 1.0 3.0 0.00 0.00 0.00 98 1017.1
20260502070703 52 53 1.0 3.0 0.00 0.00 0.00 98 1017.1
20260502070624 52 52 1.0 2.0 0.00 0.00 0.00 99 1017.2
20260502070503 52 52 1.0 2.0 0.00 0.00 0.00 98 1017.3
20260502070403 52 51 1.0 2.0 0.00 0.00 0.00 99 1017.2
20260502070303 52 51 1.0 2.0 0.00 0.00 0.00 99 1017.2
20260502070203 52 51 1.0 2.0 0.00 0.00 0.00 99 1017.1
20260502070003 52 50 1.0 2.0 0.00 0.00 0.00 99 1017.0
20260502065903 52 49 1.0 1.0 0.00 0.00 0.00 99 1017.4
20260502065824 52 49 1.0 1.0 0.00 0.00 0.00 99 1017.4
20260502065703 52 49 0.0 1.0 0.00 0.00 0.00 99 1017.2
20260502065603 52 48 0.0 1.0 0.00 0.00 0.00 99 1017.3
20260502065524 52 48 0.0 1.0 0.00 0.00 0.00 99 1017.3
20260502065403 52 48 0.0 1.0 0.00 0.00 0.00 98 1017.0
20260502065305 52 0 0.0 0.0 0.00 0.00 0.00 98 1017.1
20260502065203 52 0 0.0 0.0 0.00 0.00 0.00 99 1017.0
20260502065103 52 0 0.0 0.0 0.00 0.00 0.00 99 1017.3
20260502065003 52 0 0.0 0.0 0.00 0.00 0.00 99 1017.1
20260502064903 52 0 0.0 0.0 0.00 0.00 0.00 99 1017.3
20260502064803 52 0 0.0 0.0 0.00 0.00 0.00 98 1017.1
20260502064703 52 0 0.0 0.0 0.00 0.00 0.00 99 1017.2
20260502064603 52 0 0.0 0.0 0.00 0.00 0.00 99 1017.3
20260502064503 52 0 0.0 0.0 0.00 0.00 0.00 99 1017.1
20260502064403 52 0 0.0 0.0 0.00 0.00 0.00 99 1017.2
20260502064303 52 0 0.0 0.0 0.00 0.00 0.00 99 1017.2
20260502064203 52 0 0.0 0.0 0.00 0.00 0.00 98 1017.2
20260502064103 52 0 0.0 0.0 0.00 0.00 0.00 99 1017.2
20260502064003 52 0 0.0 0.0 0.00 0.00 0.00 98 1017.3
20260502063903 52 0 0.0 0.0 0.00 0.00 0.00 98 1017.1
20260502063803 52 0 0.0 0.0 0.00 0.00 0.00 98 1017.1
20260502063703 52 0 0.0 0.0 0.00 0.00 0.00 99 1017.3
20260502063603 51 0 0.0 0.0 0.00 0.00 0.00 98 1017.3
20260502063503 51 0 0.0 0.0 0.00 0.00 0.00 98 1017.1
20260502063403 51 0 0.0 0.0 0.00 0.00 0.00 98 1017.1
20260502063303 51 48 0.0 1.0 0.00 0.00 0.00 98 1017.2
20260502063203 51 48 0.0 1.0 0.00 0.00 0.00 98 1017.2
20260502063124 51 48 0.0 1.0 0.00 0.00 0.00 98 1017.2
20260502063003 51 48 0.0 1.0 0.00 0.00 0.00 98 1017.2
20260502062904 51 48 0.0 1.0 0.00 0.00 0.00 98 1017.2
20260502062803 51 48 0.0 1.0 0.00 0.00 0.00 98 1017.2
20260502062703 51 48 0.0 1.0 0.00 0.00 0.00 98 1017.2
20260502062603 51 49 0.0 1.0 0.00 0.00 0.00 98 1017.3
20260502062503 51 49 0.0 1.0 0.00 0.00 0.00 98 1017.3
20260502062403 51 49 0.0 1.0 0.00 0.00 0.00 98 1017.3
20260502062306 51 48 0.0 1.0 0.00 0.00 0.00 98 1017.4
20260502062203 51 48 0.0 1.0 0.00 0.00 0.00 98 1017.3
20260502062103 51 49 1.0 1.0 0.00 0.00 0.00 98 1017.4
20260502062003 51 50 1.0 2.0 0.00 0.00 0.00 98 1017.4
20260502061903 51 50 1.0 2.0 0.00 0.00 0.00 98 1017.2
20260502061803 51 50 1.0 2.0 0.00 0.00 0.00 98 1017.2
20260502061703 51 50 1.0 2.0 0.00 0.00 0.00 98 1017.3
20260502061603 51 49 1.0 2.0 0.00 0.00 0.00 98 1017.3
20260502061503 51 49 1.0 2.0 0.00 0.00 0.00 98 1017.3
20260502061403 51 48 1.0 2.0 0.00 0.00 0.00 98 1017.3
20260502061303 51 48 1.0 2.0 0.00 0.00 0.00 98 1017.1
20260502061224 51 48 1.0 2.0 0.00 0.00 0.00 98 1017.1
20260502061103 51 48 1.0 2.0 0.00 0.00 0.00 98 1017.3
20260502061003 51 47 1.0 2.0 0.00 0.00 0.00 98 1017.2
20260502060924 50 45 1.0 2.0 0.00 0.00 0.00 98 1017.3
20260502060804 50 42 1.0 1.0 0.00 0.00 0.00 98 1017.2
20260502060703 50 42 1.0 1.0 0.00 0.00 0.00 98 1017.2
20260502060603 50 41 0.0 1.0 0.00 0.00 0.00 98 1017.2
20260502060503 50 41 0.0 1.0 0.00 0.00 0.00 98 1017.2
20260502060424 50 41 0.0 1.0 0.00 0.00 0.00 98 1017.1
20260502060303 50 40 0.0 1.0 0.00 0.00 0.00 98 1017.0
20260502060203 50 40 0.0 1.0 0.00 0.00 0.00 98 1017.3
20260502060003 50 39 0.0 1.0 0.00 0.00 0.00 98 1017.2
20260502055903 50 39 0.0 1.0 0.00 0.00 0.00 98 1017.1
20260502055803 50 39 0.0 1.0 0.00 0.00 0.00 98 1017.1
20260502055724 50 39 0.0 1.0 0.00 0.00 0.00 98 1017.1
20260502055603 50 39 0.0 1.0 0.00 0.00 0.00 98 1017.0
20260502055503 50 39 0.0 1.0 0.00 0.00 0.00 98 1017.0
20260502055403 50 39 0.0 1.0 0.00 0.00 0.00 98 1017.0
20260502055305 50 39 0.0 1.0 0.00 0.00 0.00 98 1017.1
20260502055224 50 39 0.0 1.0 0.00 0.00 0.00 98 1017.0
20260502055124 50 39 0.0 1.0 0.00 0.00 0.00 98 1017.2
20260502055003 50 39 0.0 1.0 0.00 0.00 0.00 98 1017.0
20260502054903 50 39 0.0 1.0 0.00 0.00 0.00 98 1017.1
20260502054803 50 39 0.0 1.0 0.00 0.00 0.00 98 1017.3
20260502054704 50 39 0.0 1.0 0.00 0.00 0.00 98 1017.1
20260502054603 50 39 0.0 1.0 0.00 0.00 0.00 98 1017.2
20260502054524 50 39 0.0 1.0 0.00 0.00 0.00 98 1017.2
20260502054403 50 0 0.0 0.0 0.00 0.00 0.00 98 1016.9
20260502054324 50 0 0.0 0.0 0.00 0.00 0.00 98 1016.9
20260502054203 50 0 0.0 0.0 0.00 0.00 0.00 98 1017.2
20260502054103 50 38 0.0 1.0 0.00 0.00 0.00 98 1017.1
20260502054003 50 38 0.0 1.0 0.00 0.00 0.00 98 1017.0
20260502053903 50 39 0.0 1.0 0.00 0.00 0.00 98 1017.1
20260502053803 50 39 0.0 1.0 0.00 0.00 0.00 98 1017.2
20260502053703 50 40 0.0 1.0 0.00 0.00 0.00 98 1017.0
20260502053603 50 41 1.0 1.0 0.00 0.00 0.00 98 1017.2
20260502053524 50 41 1.0 1.0 0.00 0.00 0.00 98 1016.9
20260502053404 50 41 1.0 1.0 0.00 0.00 0.00 98 1017.0
20260502053303 50 41 1.0 1.0 0.00 0.00 0.00 98 1017.0
20260502053203 49 41 1.0 1.0 0.00 0.00 0.00 98 1017.1
20260502053103 49 42 0.0 1.0 0.00 0.00 0.00 98 1017.0
20260502053003 49 42 0.0 1.0 0.00 0.00 0.00 98 1017.0
20260502052903 49 43 0.0 1.0 0.00 0.00 0.00 98 1016.9
20260502052824 49 43 0.0 1.0 0.00 0.00 0.00 98 1016.9
20260502052703 49 45 0.0 1.0 0.00 0.00 0.00 98 1017.1
20260502052603 49 45 0.0 1.0 0.00 0.00 0.00 98 1017.0
20260502052503 49 0 0.0 0.0 0.00 0.00 0.00 98 1017.2
20260502052403 49 0 0.0 0.0 0.00 0.00 0.00 98 1017.1
20260502052306 49 0 0.0 0.0 0.00 0.00 0.00 98 1017.0
20260502052203 49 0 0.0 0.0 0.00 0.00 0.00 98 1017.2
20260502052103 49 0 0.0 0.0 0.00 0.00 0.00 98 1017.1
20260502052003 49 0 0.0 0.0 0.00 0.00 0.00 98 1017.1
20260502051924 49 0 0.0 0.0 0.00 0.00 0.00 98 1017.1
20260502051803 49 0 0.0 0.0 0.00 0.00 0.00 98 1017.0
20260502051703 49 0 0.0 0.0 0.00 0.00 0.00 98 1017.0
20260502051603 49 0 0.0 0.0 0.00 0.00 0.00 98 1017.1
20260502051524 49 0 0.0 0.0 0.00 0.00 0.00 98 1017.1
20260502051403 50 0 0.0 0.0 0.00 0.00 0.00 98 1017.1
20260502051303 50 0 0.0 0.0 0.00 0.00 0.00 98 1017.1
20260502051203 50 0 0.0 0.0 0.00 0.00 0.00 98 1017.1
20260502051103 50 0 0.0 0.0 0.00 0.00 0.00 98 1017.0
20260502051003 50 0 0.0 0.0 0.00 0.00 0.00 98 1017.1
20260502050903 50 0 0.0 0.0 0.00 0.00 0.00 98 1017.1
20260502050803 50 0 0.0 0.0 0.00 0.00 0.00 98 1016.9
20260502050703 50 0 0.0 0.0 0.00 0.00 0.00 98 1016.9
20260502050603 50 0 0.0 0.0 0.00 0.00 0.00 98 1017.0
20260502050503 50 0 0.0 0.0 0.00 0.00 0.00 98 1016.9
20260502050403 50 0 0.0 0.0 0.00 0.00 0.00 98 1017.0
20260502050303 50 0 0.0 0.0 0.00 0.00 0.00 98 1017.0
20260502050203 50 0 0.0 0.0 0.00 0.00 0.00 98 1017.1
20260502050124 50 0 0.0 0.0 0.00 0.00 0.00 98 1016.9
20260502050003 50 0 0.0 0.0 0.00 0.00 0.00 98 1016.8
20260502045903 50 0 0.0 0.0 0.00 0.00 0.00 98 1016.8
20260502045803 50 0 0.0 0.0 0.00 0.00 0.00 98 1016.8
20260502045703 50 0 0.0 0.0 0.00 0.00 0.00 98 1016.8
20260502045603 51 0 0.0 0.0 0.00 0.00 0.00 98 1016.9
20260502045503 51 0 0.0 0.0 0.00 0.00 0.00 98 1016.7
20260502045403 51 0 0.0 0.0 0.00 0.00 0.00 98 1016.7
20260502045305 51 0 0.0 0.0 0.00 0.00 0.00 98 1016.8
20260502045203 51 0 0.0 0.0 0.00 0.00 0.00 98 1016.6
20260502045104 51 0 0.0 0.0 0.00 0.00 0.00 98 1016.8
20260502045024 51 0 0.0 0.0 0.00 0.00 0.00 98 1016.8
20260502044903 51 0 0.0 0.0 0.00 0.00 0.00 98 1016.6
20260502044824 51 0 0.0 0.0 0.00 0.00 0.00 98 1016.6
20260502044703 51 0 0.0 0.0 0.00 0.00 0.00 98 1016.7
20260502044603 51 0 0.0 0.0 0.00 0.00 0.00 98 1016.6
20260502044503 51 0 0.0 0.0 0.00 0.00 0.00 98 1016.9
20260502044403 51 0 0.0 0.0 0.00 0.00 0.00 98 1016.8
20260502044303 51 0 0.0 0.0 0.00 0.00 0.00 98 1016.6
20260502044203 51 0 0.0 0.0 0.00 0.00 0.00 98 1016.7
20260502044103 51 0 0.0 0.0 0.00 0.00 0.00 98 1016.8
20260502044003 51 0 0.0 0.0 0.00 0.00 0.00 98 1016.6
20260502043903 51 0 0.0 0.0 0.00 0.00 0.00 98 1016.6
20260502043803 51 0 0.0 0.0 0.00 0.00 0.00 98 1016.6
20260502043703 51 0 0.0 0.0 0.00 0.00 0.00 98 1016.8
20260502043603 51 0 0.0 0.0 0.00 0.00 0.00 98 1016.7
20260502043503 51 0 0.0 0.0 0.00 0.00 0.00 98 1016.8
20260502043403 51 0 0.0 0.0 0.00 0.00 0.00 98 1016.6
20260502043303 51 0 0.0 0.0 0.00 0.00 0.00 98 1016.6
20260502043203 51 0 0.0 0.0 0.00 0.00 0.00 98 1016.8
20260502043103 51 0 0.0 0.0 0.00 0.00 0.00 98 1016.8
20260502043003 51 0 0.0 0.0 0.00 0.00 0.00 98 1016.7
20260502042903 51 0 0.0 0.0 0.00 0.00 0.00 98 1016.7
20260502042803 51 0 0.0 0.0 0.00 0.00 0.00 98 1016.6
20260502042703 51 0 0.0 0.0 0.00 0.00 0.00 98 1016.6
20260502042603 51 0 0.0 0.0 0.00 0.00 0.00 98 1016.7
20260502042503 51 0 0.0 0.0 0.00 0.00 0.00 98 1016.7
20260502042403 51 0 0.0 0.0 0.00 0.00 0.00 98 1016.7
20260502042305 51 0 0.0 0.0 0.00 0.00 0.00 98 1016.6
20260502042203 51 0 0.0 0.0 0.00 0.00 0.00 98 1016.7
20260502042103 51 0 0.0 0.0 0.00 0.00 0.00 98 1016.5
20260502042003 51 0 0.0 0.0 0.00 0.00 0.00 98 1016.8
20260502041903 51 0 0.0 0.0 0.00 0.00 0.00 98 1016.7
20260502041803 51 0 0.0 0.0 0.00 0.00 0.00 98 1016.6
20260502041703 51 0 0.0 0.0 0.00 0.00 0.00 98 1016.7
20260502041603 51 0 0.0 0.0 0.00 0.00 0.00 98 1016.9
20260502041503 51 0 0.0 0.0 0.00 0.00 0.00 98 1016.7
20260502041404 51 0 0.0 0.0 0.00 0.00 0.00 98 1016.7
20260502041303 51 0 0.0 0.0 0.00 0.00 0.00 98 1016.7
20260502041203 51 0 0.0 0.0 0.00 0.00 0.00 98 1016.8
20260502041103 51 0 0.0 0.0 0.00 0.00 0.00 98 1016.9
20260502041003 51 0 0.0 0.0 0.00 0.00 0.00 98 1016.8
20260502040903 51 0 0.0 0.0 0.00 0.00 0.00 98 1016.8
20260502040803 51 0 0.0 0.0 0.00 0.00 0.00 98 1016.8
20260502040703 51 0 0.0 0.0 0.00 0.00 0.00 98 1016.7
20260502040603 51 0 0.0 0.0 0.00 0.00 0.00 98 1017.0
20260502040503 51 0 0.0 0.0 0.00 0.00 0.00 97 1016.9
20260502040403 51 0 0.0 0.0 0.00 0.00 0.00 97 1017.0
20260502040303 51 0 0.0 0.0 0.00 0.00 0.00 97 1016.9
20260502040224 51 0 0.0 0.0 0.00 0.00 0.00 97 1016.8
20260502040124 51 0 0.0 0.0 0.00 0.00 0.00 97 1016.8
20260502040003 51 0 0.0 0.0 0.00 0.00 0.00 97 1016.8
20260502035903 51 0 0.0 0.0 0.00 0.00 0.00 97 1016.8
20260502035803 51 0 0.0 0.0 0.00 0.00 0.00 97 1016.9
20260502035703 51 0 0.0 0.0 0.00 0.00 0.00 97 1016.9
20260502035603 51 0 0.0 0.0 0.00 0.00 0.00 97 1016.9
20260502035503 51 0 0.0 0.0 0.00 0.00 0.00 97 1017.1
20260502035403 51 0 0.0 0.0 0.00 0.00 0.00 97 1017.0
20260502035306 51 0 0.0 0.0 0.00 0.00 0.00 97 1017.0
20260502035224 51 0 0.0 0.0 0.00 0.00 0.00 97 1016.7
20260502035103 51 0 0.0 0.0 0.00 0.00 0.00 97 1016.9
20260502035003 51 0 0.0 0.0 0.00 0.00 0.00 97 1016.8
20260502034903 51 0 0.0 0.0 0.00 0.00 0.00 97 1016.9
20260502034803 51 54 0.0 1.0 0.00 0.00 0.00 97 1016.8
20260502034703 51 54 0.0 1.0 0.00 0.00 0.00 97 1016.8
20260502034624 51 54 0.0 1.0 0.00 0.00 0.00 97 1016.8
20260502034503 51 53 0.0 1.0 0.00 0.00 0.00 97 1016.9
20260502034403 51 53 0.0 1.0 0.00 0.00 0.00 97 1016.8
20260502034324 51 53 0.0 1.0 0.00 0.00 0.00 97 1016.8
20260502034203 51 52 0.0 2.0 0.00 0.00 0.00 97 1017.0
20260502034103 51 53 1.0 2.0 0.00 0.00 0.00 97 1016.8
20260502034003 51 53 1.0 2.0 0.00 0.00 0.00 97 1016.9
20260502033903 51 53 1.0 2.0 0.00 0.00 0.00 97 1017.0
20260502033803 51 53 1.0 2.0 0.00 0.00 0.00 97 1017.0
20260502033703 51 53 1.0 2.0 0.00 0.00 0.00 97 1017.0
20260502033603 51 53 1.0 2.0 0.00 0.00 0.00 97 1017.2
20260502033503 51 53 1.0 2.0 0.00 0.00 0.00 97 1016.9
20260502033403 51 53 0.0 2.0 0.00 0.00 0.00 97 1017.0
20260502033303 51 53 0.0 2.0 0.00 0.00 0.00 97 1017.2
20260502033203 51 54 0.0 2.0 0.00 0.00 0.00 97 1017.1
20260502033103 51 52 0.0 1.0 0.00 0.00 0.00 97 1017.0
20260502033003 51 52 0.0 1.0 0.00 0.00 0.00 97 1017.2
20260502032924 51 52 0.0 1.0 0.00 0.00 0.00 97 1017.1
20260502032803 51 52 0.0 1.0 0.00 0.00 0.00 97 1017.0
20260502032703 51 0 0.0 0.0 0.00 0.00 0.00 97 1017.0
20260502032603 51 52 0.0 1.0 0.00 0.00 0.00 97 1017.0
20260502032524 51 52 0.0 1.0 0.00 0.00 0.00 97 1017.0
20260502032424 51 52 0.0 1.0 0.00 0.00 0.00 97 1017.1
20260502032305 51 52 0.0 1.0 0.00 0.00 0.00 97 1017.0
20260502032203 51 52 0.0 1.0 0.00 0.00 0.00 97 1017.0
20260502032103 51 52 0.0 1.0 0.00 0.00 0.00 97 1017.0
20260502032003 51 52 0.0 1.0 0.00 0.00 0.00 97 1017.0
20260502031903 51 52 0.0 1.0 0.00 0.00 0.00 97 1017.0
20260502031803 52 52 0.0 1.0 0.00 0.00 0.00 97 1017.0
20260502031703 52 52 0.0 1.0 0.00 0.00 0.00 97 1017.0
20260502031624 52 52 0.0 1.0 0.00 0.00 0.00 97 1017.1
20260502031503 51 52 0.0 1.0 0.00 0.00 0.00 97 1017.0
20260502031403 51 52 0.0 1.0 0.00 0.00 0.00 97 1017.0
20260502031303 51 52 0.0 1.0 0.00 0.00 0.00 97 1016.9
20260502031203 51 52 0.0 1.0 0.00 0.00 0.00 97 1017.1
20260502031104 51 52 0.0 1.0 0.00 0.00 0.00 97 1017.1
20260502031003 51 0 0.0 0.0 0.00 0.00 0.00 97 1017.1
20260502030903 51 0 0.0 0.0 0.00 0.00 0.00 97 1017.0
20260502030803 51 0 0.0 0.0 0.00 0.00 0.00 97 1017.1
20260502030703 51 0 0.0 0.0 0.00 0.00 0.00 97 1017.0
20260502030603 51 0 0.0 0.0 0.00 0.00 0.00 97 1017.0
20260502030524 51 0 0.0 0.0 0.00 0.00 0.00 97 1017.1
20260502030403 51 0 0.0 0.0 0.00 0.00 0.00 97 1017.1
20260502030303 51 0 0.0 0.0 0.00 0.00 0.00 97 1017.2
20260502030203 51 0 0.0 0.0 0.00 0.00 0.00 97 1017.0
20260502030003 51 0 0.0 0.0 0.00 0.00 0.00 97 1017.1
20260502025903 52 0 0.0 0.0 0.00 0.00 0.00 97 1017.1
20260502025803 52 0 0.0 0.0 0.00 0.00 0.00 97 1017.0
20260502025703 52 0 0.0 0.0 0.00 0.00 0.00 97 1017.1
20260502025624 52 0 0.0 0.0 0.00 0.00 0.00 97 1017.1
20260502025503 52 0 0.0 0.0 0.00 0.00 0.00 97 1017.2
20260502025403 52 0 0.0 0.0 0.00 0.00 0.00 97 1017.2
20260502025306 52 0 0.0 0.0 0.00 0.00 0.00 97 1017.3
20260502025203 51 0 0.0 0.0 0.00 0.00 0.00 97 1017.2
20260502025103 51 0 0.0 0.0 0.00 0.00 0.00 97 1017.2
20260502025003 51 0 0.0 0.0 0.00 0.00 0.00 97 1017.3
20260502024903 51 0 0.0 0.0 0.00 0.00 0.00 97 1017.2
20260502024803 51 0 0.0 0.0 0.00 0.00 0.00 97 1017.4
20260502024703 51 0 0.0 0.0 0.00 0.00 0.00 97 1017.4
20260502024603 51 52 0.0 1.0 0.00 0.00 0.00 97 1017.3
20260502024503 51 52 0.0 1.0 0.00 0.00 0.00 97 1017.3
20260502024403 51 52 0.0 1.0 0.00 0.00 0.00 97 1017.3
20260502024324 51 52 0.0 1.0 0.00 0.00 0.00 97 1017.3
20260502024203 52 52 0.0 1.0 0.00 0.00 0.00 97 1017.3
20260502024103 52 52 0.0 1.0 0.00 0.00 0.00 97 1017.3
20260502024024 52 52 0.0 1.0 0.00 0.00 0.00 97 1017.3
20260502023924 52 52 0.0 1.0 0.00 0.00 0.00 97 1017.3
20260502023804 52 52 0.0 1.0 0.00 0.00 0.00 97 1017.4
20260502023703 52 52 0.0 1.0 0.00 0.00 0.00 97 1017.2
20260502023603 52 52 0.0 1.0 0.00 0.00 0.00 97 1017.1
20260502023503 51 52 0.0 1.0 0.00 0.00 0.00 97 1017.3
20260502023403 51 52 0.0 1.0 0.00 0.00 0.00 97 1017.3
20260502023303 51 0 0.0 0.0 0.00 0.00 0.00 97 1017.3
20260502023203 51 53 0.0 1.0 0.00 0.00 0.00 96 1017.5
20260502023103 51 53 0.0 1.0 0.00 0.00 0.00 96 1017.3
20260502023003 51 53 0.0 1.0 0.00 0.00 0.00 96 1017.4
20260502022903 51 53 0.0 1.0 0.00 0.00 0.00 96 1017.5
20260502022824 51 53 0.0 1.0 0.00 0.00 0.00 96 1017.5
20260502022724 51 53 0.0 1.0 0.00 0.00 0.00 96 1017.4
20260502022603 51 53 0.0 1.0 0.00 0.00 0.00 96 1017.5
20260502022503 52 53 1.0 2.0 0.00 0.00 0.00 96 1017.4
20260502022424 52 53 1.0 2.0 0.00 0.00 0.00 96 1017.4
20260502022306 52 53 1.0 2.0 0.00 0.00 0.00 96 1017.5
20260502022203 52 53 1.0 2.0 0.00 0.00 0.00 96 1017.5
20260502022103 51 53 0.0 2.0 0.00 0.00 0.00 97 1017.4
20260502022003 51 53 0.0 2.0 0.00 0.00 0.00 97 1017.3
20260502021904 51 53 0.0 2.0 0.00 0.00 0.00 97 1017.6
20260502021824 51 53 0.0 2.0 0.00 0.00 0.00 97 1017.4
20260502021703 51 53 0.0 2.0 0.00 0.00 0.00 96 1017.4
20260502021603 51 52 0.0 2.0 0.00 0.00 0.00 96 1017.4
20260502021503 51 52 0.0 2.0 0.00 0.00 0.00 96 1017.5
20260502021403 51 51 0.0 1.0 0.00 0.00 0.00 96 1017.5
20260502021303 51 51 0.0 1.0 0.00 0.00 0.00 96 1017.4
20260502021203 51 51 0.0 1.0 0.00 0.00 0.00 96 1017.4
20260502021103 51 51 0.0 1.0 0.00 0.00 0.00 96 1017.4
20260502021003 51 51 0.0 1.0 0.00 0.00 0.00 96 1017.5
20260502020903 51 51 0.0 1.0 0.00 0.00 0.00 96 1017.4
20260502020803 52 51 0.0 1.0 0.00 0.00 0.00 96 1017.6
20260502020724 52 51 0.0 1.0 0.00 0.00 0.00 96 1017.5
20260502020624 52 51 0.0 1.0 0.00 0.00 0.00 96 1017.4
20260502020524 52 51 0.0 1.0 0.00 0.00 0.00 96 1017.5
20260502020403 52 51 0.0 1.0 0.00 0.00 0.00 96 1017.4
20260502020303 52 51 0.0 1.0 0.00 0.00 0.00 96 1017.5
20260502020203 52 51 0.0 1.0 0.00 0.00 0.00 96 1017.5
20260502020104 52 52 0.0 1.0 0.00 0.00 0.00 96 1017.6
20260502020003 52 52 0.0 1.0 0.00 0.00 0.00 96 1017.4
20260502015903 52 52 0.0 1.0 0.00 0.00 0.00 97 1017.6
20260502015804 52 52 0.0 1.0 0.00 0.00 0.00 97 1017.6
20260502015703 52 52 0.0 1.0 0.00 0.00 0.00 97 1017.7
20260502015603 52 52 0.0 1.0 0.00 0.00 0.00 97 1017.7
20260502015503 52 52 0.0 1.0 0.00 0.00 0.00 97 1017.7
20260502015403 52 52 0.0 1.0 0.00 0.00 0.00 96 1017.6
20260502015305 52 52 0.0 1.0 0.00 0.00 0.00 96 1017.5
20260502015203 52 52 0.0 1.0 0.00 0.00 0.00 96 1017.7
20260502015103 52 53 0.0 1.0 0.00 0.00 0.00 97 1017.7
20260502015024 52 52 0.0 1.0 0.00 0.00 0.00 96 1017.6
20260502014903 52 52 0.0 1.0 0.00 0.00 0.00 96 1017.6
20260502014803 52 52 0.0 1.0 0.00 0.00 0.00 96 1017.6
20260502014704 52 52 0.0 1.0 0.00 0.00 0.00 96 1017.6
20260502014603 52 52 0.0 1.0 0.00 0.00 0.00 96 1017.4
20260502014503 52 53 1.0 2.0 0.00 0.00 0.00 96 1017.7
20260502014403 52 53 1.0 2.0 0.00 0.00 0.00 96 1017.6
20260502014303 52 53 1.0 2.0 0.00 0.00 0.00 96 1017.7
20260502014203 52 53 1.0 2.0 0.00 0.00 0.00 96 1017.5
20260502014103 52 52 0.0 2.0 0.00 0.00 0.00 96 1017.8
20260502014003 52 52 0.0 2.0 0.00 0.00 0.00 96 1017.7
20260502013903 52 52 0.0 2.0 0.00 0.00 0.00 96 1017.7
20260502013824 52 52 0.0 2.0 0.00 0.00 0.00 96 1017.8
20260502013703 52 53 0.0 2.0 0.00 0.00 0.00 96 1017.7
20260502013624 52 53 0.0 2.0 0.00 0.00 0.00 96 1017.7
20260502013524 52 53 0.0 2.0 0.00 0.00 0.00 96 1017.8
20260502013403 52 50 0.0 1.0 0.00 0.00 0.00 96 1017.8
20260502013303 52 50 0.0 1.0 0.00 0.00 0.00 96 1017.8
20260502013203 52 50 0.0 1.0 0.00 0.00 0.00 96 1017.8
20260502013124 52 0 0.0 0.0 0.00 0.00 0.00 96 1017.8
20260502013003 52 0 0.0 0.0 0.00 0.00 0.00 96 1017.8
20260502012903 52 0 0.0 0.0 0.00 0.00 0.00 96 1017.9
20260502012824 52 0 0.0 0.0 0.00 0.00 0.00 96 1017.9
20260502012703 53 0 0.0 0.0 0.00 0.00 0.00 96 1017.9
20260502012624 53 0 0.0 0.0 0.00 0.00 0.00 96 1017.9
20260502012503 53 0 0.0 0.0 0.00 0.00 0.00 96 1017.8
20260502012403 53 0 0.0 0.0 0.00 0.00 0.00 96 1017.8
20260502012306 53 0 0.0 0.0 0.00 0.00 0.00 96 1017.8
20260502012203 53 0 0.0 0.0 0.00 0.00 0.00 96 1017.8
20260502012103 52 0 0.0 0.0 0.00 0.00 0.00 96 1017.9
20260502012003 52 0 0.0 0.0 0.00 0.00 0.00 96 1017.8
20260502011903 52 0 0.0 0.0 0.00 0.00 0.00 96 1017.8
20260502011803 52 0 0.0 0.0 0.00 0.00 0.00 96 1017.9
20260502011724 53 0 0.0 0.0 0.00 0.00 0.00 96 1017.8
20260502011603 53 0 0.0 0.0 0.00 0.00 0.00 96 1017.8
20260502011503 52 0 0.0 0.0 0.00 0.00 0.00 96 1017.7
20260502011403 52 0 0.0 0.0 0.00 0.00 0.00 96 1018.0
20260502011303 53 0 0.0 0.0 0.00 0.00 0.00 96 1017.7
20260502011203 53 0 0.0 0.0 0.00 0.00 0.00 96 1018.0
20260502011103 53 0 0.0 0.0 0.00 0.00 0.00 96 1017.9
20260502011003 53 0 0.0 0.0 0.00 0.00 0.00 96 1017.8
20260502010924 53 0 0.0 0.0 0.00 0.00 0.00 96 1017.8
20260502010803 53 0 0.0 0.0 0.00 0.00 0.00 96 1017.9
20260502010703 53 0 0.0 0.0 0.00 0.00 0.00 96 1017.9
20260502010603 53 0 0.0 0.0 0.00 0.00 0.00 96 1017.8
20260502010503 53 0 0.0 0.0 0.00 0.00 0.00 96 1018.0
20260502010403 53 0 0.0 0.0 0.00 0.00 0.00 96 1018.1
20260502010304 53 0 0.0 0.0 0.00 0.00 0.00 96 1017.9
20260502010203 53 0 0.0 0.0 0.00 0.00 0.00 96 1018.1
20260502010003 53 0 0.0 0.0 0.00 0.00 0.00 96 1018.0
20260502005903 53 0 0.0 0.0 0.00 0.00 0.00 96 1018.1
20260502005803 53 0 0.0 0.0 0.00 0.00 0.00 96 1018.1
20260502005703 53 0 0.0 0.0 0.00 0.00 0.00 96 1018.1
20260502005603 53 0 0.0 0.0 0.00 0.00 0.00 96 1018.1
20260502005503 53 0 0.0 0.0 0.00 0.00 0.00 96 1018.0
20260502005403 53 0 0.0 0.0 0.00 0.00 0.00 96 1018.0
20260502005305 53 0 0.0 0.0 0.00 0.00 0.00 96 1018.1
20260502005203 53 0 0.0 0.0 0.00 0.00 0.00 96 1018.1
20260502005103 53 0 0.0 0.0 0.00 0.00 0.00 96 1018.1
20260502005024 53 0 0.0 0.0 0.00 0.00 0.00 96 1018.1
20260502004903 53 0 0.0 0.0 0.00 0.00 0.00 95 1018.1
20260502004803 53 0 0.0 0.0 0.00 0.00 0.00 95 1018.1
20260502004703 53 0 0.0 0.0 0.00 0.00 0.00 95 1018.2
20260502004603 53 0 0.0 0.0 0.00 0.00 0.00 95 1018.0
20260502004503 53 0 0.0 0.0 0.00 0.00 0.00 95 1018.0
20260502004403 53 0 0.0 0.0 0.00 0.00 0.00 95 1018.0
20260502004324 53 0 0.0 0.0 0.00 0.00 0.00 95 1018.2
20260502004224 53 0 0.0 0.0 0.00 0.00 0.00 95 1018.1
20260502004103 53 0 0.0 0.0 0.00 0.00 0.00 95 1018.0
20260502004004 53 0 0.0 0.0 0.00 0.00 0.00 95 1018.3
20260502003924 53 12 0.0 1.0 0.00 0.00 0.00 95 1017.9
20260502003803 53 12 0.0 1.0 0.00 0.00 0.00 95 1018.0
20260502003703 53 12 0.0 1.0 0.00 0.00 0.00 95 1018.2
20260502003603 53 12 0.0 1.0 0.00 0.00 0.00 95 1018.2
20260502003503 53 12 0.0 1.0 0.00 0.00 0.00 95 1018.2
20260502003424 53 12 0.0 1.0 0.00 0.00 0.00 95 1018.1
20260502003303 53 12 0.0 1.0 0.00 0.00 0.00 95 1018.1
20260502003203 53 12 0.0 1.0 0.00 0.00 0.00 95 1018.1
20260502003103 53 12 0.0 1.0 0.00 0.00 0.00 95 1018.2
20260502003003 53 12 0.0 1.0 0.00 0.00 0.00 95 1018.1
20260502002924 53 12 0.0 1.0 0.00 0.00 0.00 95 1018.1
20260502002803 53 0 0.0 0.0 0.00 0.00 0.00 95 1018.1
20260502002703 53 0 0.0 0.0 0.00 0.00 0.00 95 1018.2
20260502002603 53 0 0.0 0.0 0.00 0.00 0.00 94 1018.3
20260502002503 53 0 0.0 0.0 0.00 0.00 0.00 94 1018.3
20260502002403 53 0 0.0 0.0 0.00 0.00 0.00 94 1018.1
20260502002305 53 0 0.0 0.0 0.00 0.00 0.00 94 1018.3
20260502002203 53 0 0.0 0.0 0.00 0.00 0.00 94 1018.1
20260502002103 53 0 0.0 0.0 0.00 0.00 0.00 94 1018.4
20260502002024 53 0 0.0 0.0 0.00 0.00 0.00 94 1018.4
20260502001903 54 0 0.0 0.0 0.00 0.00 0.00 94 1018.3
20260502001803 54 0 0.0 0.0 0.00 0.00 0.00 94 1018.2
20260502001703 54 0 0.0 0.0 0.00 0.00 0.00 94 1018.3
20260502001603 54 0 0.0 0.0 0.00 0.00 0.00 94 1018.4
20260502001503 54 0 0.0 0.0 0.00 0.00 0.00 94 1018.4
20260502001403 54 0 0.0 0.0 0.00 0.00 0.00 94 1018.2
20260502001303 54 0 0.0 0.0 0.00 0.00 0.00 94 1018.3
20260502001203 54 0 0.0 0.0 0.00 0.00 0.00 94 1018.2
20260502001104 54 0 0.0 0.0 0.00 0.00 0.00 94 1018.2
20260502001003 54 0 0.0 0.0 0.00 0.00 0.00 94 1018.4
20260502000903 54 0 0.0 0.0 0.00 0.00 0.00 94 1018.3
20260502000803 54 0 0.0 0.0 0.00 0.00 0.00 94 1018.3
20260502000703 54 0 0.0 0.0 0.00 0.00 0.00 94 1018.3
20260502000603 54 0 0.0 0.0 0.00 0.00 0.00 94 1018.4
20260502000503 54 0 0.0 0.0 0.00 0.00 0.00 94 1018.4
20260502000403 54 0 0.0 0.0 0.00 0.00 0.00 94 1018.4
20260502000303 54 0 0.0 0.0 0.00 0.00 0.00 94 1018.5
20260502000225 54 0 0.0 0.0 0.00 0.00 0.00 94 1018.6
20260502000003 54 0 0.0 0.0 0.00 0.00 0.00 94 1018.5
20260501235924 54 0 0.0 0.0 0.00 0.00 0.00 94 1018.4
20260501235803 54 0 0.0 0.0 0.00 0.00 0.00 94 1018.4
20260501235703 54 0 0.0 0.0 0.00 0.00 0.00 94 1018.4
20260501235624 54 0 0.0 0.0 0.00 0.00 0.00 94 1018.5
20260501235503 54 0 0.0 0.0 0.00 0.00 0.00 93 1018.4
20260501235403 54 0 0.0 0.0 0.00 0.00 0.00 93 1018.5
20260501235305 54 0 0.0 0.0 0.00 0.00 0.00 93 1018.6
20260501235203 54 0 0.0 0.0 0.00 0.00 0.00 93 1018.5
20260501235124 54 0 0.0 0.0 0.00 0.00 0.00 93 1018.5
20260501235003 54 0 0.0 0.0 0.00 0.00 0.00 93 1018.6
20260501234903 55 0 0.0 0.0 0.00 0.00 0.00 93 1018.7
20260501234803 55 0 0.0 0.0 0.00 0.00 0.00 93 1018.6
20260501234702 55 0 0.0 0.0 0.00 0.00 0.00 93 1018.6
20260501234623 55 0 0.0 0.0 0.00 0.00 0.00 93 1018.8
20260501234523 55 0 0.0 0.0 0.00 0.00 0.00 93 1018.7
20260501234402 55 0 0.0 0.0 0.00 0.00 0.00 93 1018.8
20260501234302 55 0 0.0 0.0 0.00 0.00 0.00 93 1018.8
20260501234203 55 0 0.0 0.0 0.00 0.00 0.00 93 1018.7
20260501234103 55 0 0.0 0.0 0.00 0.00 0.00 93 1018.7
20260501234003 55 0 0.0 0.0 0.00 0.00 0.00 93 1018.6
20260501233924 55 0 0.0 0.0 0.00 0.00 0.00 93 1018.7
20260501233802 55 0 0.0 0.0 0.00 0.00 0.00 93 1018.7
20260501233703 55 0 0.0 0.0 0.00 0.00 0.00 93 1018.7
20260501233603 55 0 0.0 0.0 0.00 0.00 0.00 93 1018.6
20260501233503 55 0 0.0 0.0 0.00 0.00 0.00 93 1018.7
20260501233402 55 0 0.0 0.0 0.00 0.00 0.00 93 1018.7
20260501233302 55 0 0.0 0.0 0.00 0.00 0.00 93 1018.9
20260501233202 56 0 0.0 0.0 0.00 0.00 0.00 93 1018.9
20260501233103 56 0 0.0 0.0 0.00 0.00 0.00 93 1018.9
20260501233003 56 0 0.0 0.0 0.00 0.00 0.00 93 1018.8
20260501232903 56 0 0.0 0.0 0.00 0.00 0.00 93 1018.7
20260501232803 56 0 0.0 0.0 0.00 0.00 0.00 93 1018.8
20260501232703 56 0 0.0 0.0 0.00 0.00 0.00 93 1018.7
20260501232603 56 0 0.0 0.0 0.00 0.00 0.00 93 1018.8
20260501232502 56 0 0.0 0.0 0.00 0.00 0.00 93 1018.8
20260501232403 56 0 0.0 0.0 0.00 0.00 0.00 93 1018.7
20260501232324 56 0 0.0 0.0 0.00 0.00 0.00 93 1018.7
20260501232203 56 7 0.0 1.0 0.00 0.00 0.00 93 1019.0
20260501232103 56 7 0.0 1.0 0.00 0.00 0.00 93 1018.9
20260501232002 56 7 0.0 1.0 0.00 0.00 0.00 93 1018.6
20260501231902 56 7 0.0 1.0 0.00 0.00 0.00 93 1019.0
20260501231802 56 7 0.0 1.0 0.00 0.00 0.00 92 1018.8
20260501231702 56 7 0.0 1.0 0.00 0.00 0.00 92 1019.0
20260501231603 56 7 0.0 1.0 0.00 0.00 0.00 92 1018.8
20260501231503 56 7 0.0 1.0 0.00 0.00 0.00 92 1018.8
20260501231402 56 7 0.0 1.0 0.00 0.00 0.00 92 1019.1
20260501231324 56 7 0.0 1.0 0.00 0.00 0.00 92 1019.0
20260501231202 56 7 0.0 1.0 0.00 0.00 0.00 92 1019.1
20260501231124 56 7 0.0 1.0 0.00 0.00 0.00 92 1019.2
20260501231003 56 7 0.0 1.0 0.00 0.00 0.00 92 1018.9
20260501230902 56 0 0.0 0.0 0.00 0.00 0.00 92 1019.0
20260501230803 56 0 0.0 0.0 0.00 0.00 0.00 92 1019.1
20260501230703 56 0 0.0 0.0 0.00 0.00 0.00 92 1019.0
20260501230602 56 0 0.0 0.0 0.00 0.00 0.00 92 1019.0
20260501230503 56 0 0.0 0.0 0.00 0.00 0.00 92 1019.1
20260501230403 56 0 0.0 0.0 0.00 0.00 0.00 92 1019.3
20260501230303 56 0 0.0 0.0 0.00 0.00 0.00 92 1019.0
20260501230202 56 0 0.0 0.0 0.00 0.00 0.00 92 1019.0
20260501230003 56 0 0.0 0.0 0.00 0.00 0.00 92 1019.0
20260501225902 56 0 0.0 0.0 0.00 0.00 0.00 92 1019.1
20260501225802 57 0 0.0 0.0 0.00 0.00 0.00 92 1019.0
20260501225724 57 0 0.0 0.0 0.00 0.00 0.00 92 1019.1
20260501225602 57 0 0.0 0.0 0.00 0.00 0.00 92 1019.0
20260501225503 57 0 0.0 0.0 0.00 0.00 0.00 92 1019.0
20260501225403 57 0 0.0 0.0 0.00 0.00 0.00 92 1019.0
20260501225305 57 0 0.0 0.0 0.00 0.00 0.00 92 1019.1
20260501225203 56 0 0.0 0.0 0.00 0.00 0.00 92 1019.2
20260501225102 56 0 0.0 0.0 0.00 0.00 0.00 92 1019.2
20260501225003 56 0 0.0 0.0 0.00 0.00 0.00 91 1019.1
20260501224903 56 0 0.0 0.0 0.00 0.00 0.00 91 1019.1
20260501224803 56 0 0.0 0.0 0.00 0.00 0.00 91 1019.0
20260501224703 56 0 0.0 0.0 0.00 0.00 0.00 91 1019.2
20260501224603 57 0 0.0 0.0 0.00 0.00 0.00 91 1019.0
20260501224503 57 0 0.0 0.0 0.00 0.00 0.00 91 1019.0
20260501224403 56 0 0.0 0.0 0.00 0.00 0.00 91 1019.2
20260501224303 56 0 0.0 0.0 0.00 0.00 0.00 91 1019.2
20260501224203 56 0 0.0 0.0 0.00 0.00 0.00 91 1019.2
20260501224124 56 0 0.0 0.0 0.00 0.00 0.00 91 1019.2
20260501224003 57 0 0.0 0.0 0.00 0.00 0.00 91 1019.1
20260501223903 57 7 0.0 1.0 0.00 0.00 0.00 91 1019.3
20260501223803 57 7 0.0 1.0 0.00 0.00 0.00 91 1019.2
20260501223724 57 7 0.0 1.0 0.00 0.00 0.00 91 1019.1
20260501223603 57 7 0.0 1.0 0.00 0.00 0.00 91 1019.3
20260501223524 57 7 0.0 1.0 0.00 0.00 0.00 91 1019.3
20260501223424 57 7 0.0 1.0 0.00 0.00 0.00 91 1019.1
20260501223303 57 7 0.0 1.0 0.00 0.00 0.00 91 1019.1
20260501223203 57 7 0.0 1.0 0.00 0.00 0.00 91 1019.1
20260501223103 57 7 0.0 1.0 0.00 0.00 0.00 91 1019.2
20260501223003 57 7 0.0 1.0 0.00 0.00 0.00 91 1019.1
20260501222903 57 7 0.0 1.0 0.00 0.00 0.00 91 1019.1
20260501222802 57 7 0.0 1.0 0.00 0.00 0.00 91 1019.2
20260501222703 57 0 0.0 0.0 0.00 0.00 0.00 91 1019.3
20260501222603 57 0 0.0 0.0 0.00 0.00 0.00 91 1019.3
20260501222503 57 0 0.0 0.0 0.00 0.00 0.00 91 1019.4
20260501222424 57 0 0.0 0.0 0.00 0.00 0.00 91 1019.4
20260501222305 57 0 0.0 0.0 0.00 0.00 0.00 90 1019.4
20260501222203 57 0 0.0 0.0 0.00 0.00 0.00 90 1019.4
20260501222103 57 0 0.0 0.0 0.00 0.00 0.00 90 1019.3
20260501222003 57 0 0.0 0.0 0.00 0.00 0.00 90 1019.3
20260501221903 57 0 0.0 0.0 0.00 0.00 0.00 90 1019.3
20260501221803 57 0 0.0 0.0 0.00 0.00 0.00 90 1019.3
20260501221703 57 0 0.0 0.0 0.00 0.00 0.00 90 1019.3
20260501221603 57 0 0.0 0.0 0.00 0.00 0.00 90 1019.3
20260501221503 57 0 0.0 0.0 0.00 0.00 0.00 90 1019.4
20260501221403 57 0 0.0 0.0 0.00 0.00 0.00 90 1019.5
20260501221303 57 0 0.0 0.0 0.00 0.00 0.00 90 1019.4
20260501221203 57 0 0.0 0.0 0.00 0.00 0.00 90 1019.5
20260501221102 57 0 0.0 0.0 0.00 0.00 0.00 90 1019.4
20260501221003 57 0 0.0 0.0 0.00 0.00 0.00 90 1019.4
20260501220903 57 0 0.0 0.0 0.00 0.00 0.00 90 1019.4
20260501220803 57 0 0.0 0.0 0.00 0.00 0.00 90 1019.4
20260501220703 57 0 0.0 0.0 0.00 0.00 0.00 90 1019.4
20260501220603 57 0 0.0 0.0 0.00 0.00 0.00 90 1019.4
20260501220503 57 0 0.0 0.0 0.00 0.00 0.00 90 1019.3
20260501220403 57 0 0.0 0.0 0.00 0.00 0.00 90 1019.4
20260501220303 57 0 0.0 0.0 0.00 0.00 0.00 90 1019.4
20260501220203 57 6 0.0 1.0 0.00 0.00 0.00 90 1019.4
20260501220004 57 6 0.0 1.0 0.00 0.00 0.00 89 1019.3
20260501215903 58 6 0.0 1.0 0.00 0.00 0.00 89 1019.3
20260501215703 58 6 0.0 2.0 0.00 0.00 0.00 89 1019.5
20260501215603 58 6 0.0 2.0 0.00 0.00 0.00 89 1019.3
20260501215503 58 6 0.0 2.0 0.00 0.00 0.00 89 1019.5
20260501215403 58 7 0.0 2.0 0.00 0.00 0.00 89 1019.4
20260501215324 58 7 0.0 2.0 0.00 0.00 0.00 89 1019.4
20260501215224 58 7 1.0 2.0 0.00 0.00 0.00 89 1019.4
20260501215103 58 7 1.0 2.0 0.00 0.00 0.00 89 1019.4
20260501215003 58 7 1.0 2.0 0.00 0.00 0.00 89 1019.4
20260501214903 58 7 1.0 2.0 0.00 0.00 0.00 89 1019.3
20260501214803 58 7 1.0 2.0 0.00 0.00 0.00 89 1019.3
20260501214703 58 7 1.0 1.0 0.00 0.00 0.00 89 1019.4
20260501214624 58 7 1.0 1.0 0.00 0.00 0.00 89 1019.4
20260501214503 58 7 1.0 1.0 0.00 0.00 0.00 89 1019.4
20260501214424 58 7 1.0 1.0 0.00 0.00 0.00 89 1019.5
20260501214303 58 7 1.0 1.0 0.00 0.00 0.00 88 1019.5
20260501214203 58 7 1.0 1.0 0.00 0.00 0.00 88 1019.4
20260501214124 58 7 1.0 1.0 0.00 0.00 0.00 88 1019.5
20260501214003 58 7 1.0 2.0 0.00 0.00 0.00 88 1019.4
20260501213903 58 7 1.0 2.0 0.00 0.00 0.00 88 1019.4
20260501213803 58 7 1.0 2.0 0.00 0.00 0.00 88 1019.5
20260501213703 58 7 1.0 2.0 0.00 0.00 0.00 88 1019.5
20260501213603 58 7 1.0 2.0 0.00 0.00 0.00 88 1019.5
20260501213503 58 7 1.0 2.0 0.00 0.00 0.00 88 1019.5
20260501213403 58 7 1.0 2.0 0.00 0.00 0.00 88 1019.5
20260501213303 58 7 1.0 2.0 0.00 0.00 0.00 88 1019.5
20260501213224 58 7 1.0 2.0 0.00 0.00 0.00 88 1019.5
20260501213103 58 7 1.0 2.0 0.00 0.00 0.00 88 1019.6
20260501213003 58 7 1.0 2.0 0.00 0.00 0.00 88 1019.6
20260501212903 58 7 1.0 2.0 0.00 0.00 0.00 88 1019.5
20260501212803 58 7 1.0 2.0 0.00 0.00 0.00 88 1019.5
20260501212724 58 7 1.0 1.0 0.00 0.00 0.00 88 1019.6
20260501212603 58 7 1.0 1.0 0.00 0.00 0.00 88 1019.6
20260501212503 58 7 1.0 1.0 0.00 0.00 0.00 88 1019.7
20260501212403 58 7 1.0 1.0 0.00 0.00 0.00 88 1019.7
20260501212305 58 7 0.0 1.0 0.00 0.00 0.00 88 1019.5
20260501212224 58 7 0.0 1.0 0.00 0.00 0.00 87 1019.6
20260501212103 58 7 0.0 1.0 0.00 0.00 0.00 87 1019.8
20260501212003 58 7 0.0 1.0 0.00 0.00 0.00 87 1019.5
20260501211903 58 7 0.0 1.0 0.00 0.00 0.00 87 1019.9
20260501211803 58 7 0.0 1.0 0.00 0.00 0.00 87 1019.6
20260501211724 58 7 0.0 1.0 0.00 0.00 0.00 87 1019.6
20260501211603 58 7 0.0 1.0 0.00 0.00 0.00 87 1019.7
20260501211503 58 7 0.0 1.0 0.00 0.00 0.00 87 1019.7
20260501211403 58 7 0.0 1.0 0.00 0.00 0.00 87 1019.9
20260501211303 58 7 0.0 1.0 0.00 0.00 0.00 87 1019.9
20260501211203 58 7 0.0 1.0 0.00 0.00 0.00 87 1019.8
20260501211103 58 7 0.0 1.0 0.00 0.00 0.00 87 1019.9
20260501211024 58 7 0.0 1.0 0.00 0.00 0.00 87 1019.9
20260501210903 58 7 0.0 1.0 0.00 0.00 0.00 87 1019.7
20260501210803 58 7 0.0 1.0 0.00 0.00 0.00 87 1019.7
20260501210703 58 7 0.0 1.0 0.00 0.00 0.00 87 1019.7
20260501210603 58 7 0.0 1.0 0.00 0.00 0.00 87 1019.5
20260501210524 58 7 0.0 1.0 0.00 0.00 0.00 87 1019.6
20260501210403 58 7 0.0 1.0 0.00 0.00 0.00 87 1019.7
20260501210303 58 7 0.0 1.0 0.00 0.00 0.00 87 1019.5
20260501210203 58 7 0.0 1.0 0.00 0.00 0.00 87 1019.6
20260501210103 58 7 0.0 1.0 0.00 0.00 0.00 86 1019.6
20260501210004 58 7 0.0 1.0 0.00 0.00 0.00 86 1019.6
20260501205903 58 7 0.0 1.0 0.00 0.00 0.00 86 1019.6
20260501205824 58 7 0.0 1.0 0.00 0.00 0.00 86 1019.6
20260501205703 59 0 0.0 0.0 0.00 0.00 0.00 86 1019.5
20260501205603 59 7 0.0 1.0 0.00 0.00 0.00 86 1019.6
20260501205503 59 7 0.0 1.0 0.00 0.00 0.00 86 1019.4
20260501205424 59 7 0.0 1.0 0.00 0.00 0.00 86 1019.4
20260501205305 59 7 0.0 1.0 0.00 0.00 0.00 86 1019.6
20260501205203 59 7 0.0 1.0 0.00 0.00 0.00 86 1019.7
20260501205103 59 7 0.0 1.0 0.00 0.00 0.00 86 1019.7
20260501205003 59 7 0.0 1.0 0.00 0.00 0.00 86 1019.5
20260501204903 59 7 0.0 1.0 0.00 0.00 0.00 86 1019.7
20260501204803 59 7 0.0 1.0 0.00 0.00 0.00 86 1019.6
20260501204703 59 7 0.0 1.0 0.00 0.00 0.00 86 1019.4
20260501204603 59 7 0.0 1.0 0.00 0.00 0.00 86 1019.7
20260501204503 59 7 0.0 1.0 0.00 0.00 0.00 86 1019.5
20260501204403 59 7 0.0 1.0 0.00 0.00 0.00 86 1019.7
20260501204303 59 7 0.0 1.0 0.00 0.00 0.00 86 1019.4
20260501204203 59 7 0.0 1.0 0.00 0.00 0.00 86 1019.6
20260501204103 59 7 0.0 1.0 0.00 0.00 0.00 86 1019.5
20260501204003 59 7 0.0 1.0 0.00 0.00 0.00 86 1019.5
20260501203903 59 7 0.0 1.0 0.00 0.00 0.00 86 1019.5
20260501203824 59 7 0.0 1.0 0.00 0.00 0.00 86 1019.5
20260501203703 59 7 1.0 1.0 0.00 0.00 0.00 85 1019.7
20260501203603 59 7 1.0 1.0 0.00 0.00 0.00 85 1019.6
20260501203524 59 7 1.0 1.0 0.00 0.00 0.00 85 1019.6
20260501203403 59 7 1.0 1.0 0.00 0.00 0.00 85 1019.4
20260501203324 59 7 1.0 1.0 0.00 0.00 0.00 85 1019.3
20260501203203 59 7 1.0 1.0 0.00 0.00 0.00 85 1019.4
20260501203103 59 7 1.0 1.0 0.00 0.00 0.00 85 1019.5
20260501203024 59 7 1.0 1.0 0.00 0.00 0.00 85 1019.5
20260501202903 59 7 1.0 1.0 0.00 0.00 0.00 85 1019.4
20260501202803 59 7 0.0 1.0 0.00 0.00 0.00 85 1019.6
20260501202703 59 7 0.0 1.0 0.00 0.00 0.00 84 1019.5
20260501202603 59 7 0.0 1.0 0.00 0.00 0.00 84 1019.4
20260501202503 59 7 0.0 1.0 0.00 0.00 0.00 84 1019.4
20260501202403 59 7 0.0 1.0 0.00 0.00 0.00 84 1019.4
20260501202306 59 7 0.0 1.0 0.00 0.00 0.00 84 1019.5
20260501202203 59 7 0.0 1.0 0.00 0.00 0.00 83 1019.5
20260501202103 59 7 0.0 1.0 0.00 0.00 0.00 83 1019.6
20260501202003 59 7 0.0 1.0 0.00 0.00 0.00 83 1019.5
20260501201903 59 7 0.0 1.0 0.00 0.00 0.00 83 1019.5
20260501201803 59 7 0.0 1.0 0.00 0.00 0.00 83 1019.5
20260501201703 59 7 1.0 1.0 0.00 0.00 0.00 83 1019.5
20260501201603 59 7 1.0 1.0 0.00 0.00 0.00 83 1019.4
20260501201524 59 7 1.0 1.0 0.00 0.00 0.00 82 1019.4
20260501201403 59 7 1.0 1.0 0.00 0.00 0.00 82 1019.4
20260501201303 59 7 1.0 1.0 0.00 0.00 0.00 82 1019.4
20260501201203 59 7 1.0 2.0 0.00 0.00 0.00 82 1019.4
20260501201103 59 7 1.0 2.0 0.00 0.00 0.00 82 1019.5
20260501201003 59 7 1.0 2.0 0.00 0.00 0.00 81 1019.5
20260501200903 59 7 1.0 2.0 0.00 0.00 0.00 81 1019.5
20260501200803 59 7 1.0 2.0 0.00 0.00 0.00 81 1019.3
20260501200703 59 7 1.0 2.0 0.00 0.00 0.00 81 1019.5
20260501200603 60 7 1.0 2.0 0.00 0.00 0.00 80 1019.4
20260501200503 60 7 1.0 2.0 0.00 0.00 0.00 80 1019.4
20260501200403 60 7 1.0 2.0 0.00 0.00 0.00 80 1019.2
20260501200303 60 7 1.0 2.0 0.00 0.00 0.00 80 1019.2
20260501200203 60 7 1.0 2.0 0.00 0.00 0.00 80 1019.3
20260501200003 60 7 1.0 2.0 0.00 0.00 0.00 80 1019.5
20260501195903 60 7 1.0 2.0 0.00 0.00 0.00 80 1019.5
20260501195824 60 7 1.0 2.0 0.00 0.00 0.00 80 1019.5
20260501195703 60 7 1.0 2.0 0.00 0.00 0.00 80 1019.4
20260501195603 60 7 1.0 2.0 0.00 0.00 0.00 80 1019.4
20260501195503 60 7 1.0 1.0 0.00 0.00 0.00 80 1019.3
20260501195403 60 7 0.0 1.0 0.00 0.00 0.00 80 1019.5
20260501195305 60 7 0.0 1.0 0.00 0.00 0.00 80 1019.5
20260501195203 60 7 0.0 1.0 0.00 0.00 0.00 80 1019.5
20260501195103 60 7 0.0 1.0 0.00 0.00 0.00 80 1019.4
20260501195024 60 7 0.0 1.0 0.00 0.00 0.00 80 1019.4
20260501194903 60 7 0.0 1.0 0.00 0.00 0.00 80 1019.5
20260501194803 60 7 0.0 1.0 0.00 0.00 0.00 80 1019.4
20260501194703 60 7 0.0 1.0 0.00 0.00 0.00 80 1019.3
20260501194603 60 7 0.0 1.0 0.00 0.00 0.00 80 1019.3
20260501194503 59 7 0.0 1.0 0.00 0.00 0.00 80 1019.4
20260501194403 60 7 0.0 1.0 0.00 0.00 0.00 80 1019.4
20260501194324 60 7 0.0 1.0 0.00 0.00 0.00 80 1019.3
20260501194203 60 7 0.0 1.0 0.00 0.00 0.00 80 1019.4
20260501194103 60 0 0.0 0.0 0.00 0.00 0.00 80 1019.4
20260501194003 59 0 0.0 0.0 0.00 0.00 0.00 80 1019.3
20260501193903 60 0 0.0 0.0 0.00 0.00 0.00 79 1019.2
20260501193803 60 0 0.0 0.0 0.00 0.00 0.00 79 1019.4
20260501193703 60 0 0.0 0.0 0.00 0.00 0.00 79 1019.5
20260501193603 60 0 0.0 0.0 0.00 0.00 0.00 79 1019.5
20260501193503 60 0 0.0 0.0 0.00 0.00 0.00 79 1019.3
20260501193424 60 0 0.0 0.0 0.00 0.00 0.00 79 1019.3
20260501193303 60 0 0.0 0.0 0.00 0.00 0.00 79 1019.2
20260501193203 60 0 0.0 0.0 0.00 0.00 0.00 79 1019.2
20260501193103 60 0 0.0 0.0 0.00 0.00 0.00 79 1019.2
20260501193003 60 0 0.0 0.0 0.00 0.00 0.00 79 1019.4
20260501192903 60 0 0.0 0.0 0.00 0.00 0.00 79 1019.5
20260501192824 60 0 0.0 0.0 0.00 0.00 0.00 79 1019.5
20260501192703 60 7 0.0 1.0 0.00 0.00 0.00 79 1019.2
20260501192603 60 7 0.0 1.0 0.00 0.00 0.00 79 1019.2
20260501192503 60 7 0.0 1.0 0.00 0.00 0.00 79 1019.3
20260501192403 60 7 0.0 1.0 0.00 0.00 0.00 79 1019.3
20260501192306 60 7 0.0 1.0 0.00 0.00 0.00 79 1019.4
20260501192203 60 7 0.0 1.0 0.00 0.00 0.00 79 1019.3
20260501192103 60 7 0.0 1.0 0.00 0.00 0.00 79 1019.1
20260501192003 60 7 0.0 1.0 0.00 0.00 0.00 79 1019.3
20260501191903 60 7 0.0 1.0 0.00 0.00 0.00 79 1019.3
20260501191803 60 7 0.0 1.0 0.00 0.00 0.00 79 1019.2
20260501191703 60 7 0.0 1.0 0.00 0.00 0.00 79 1019.2
20260501191603 60 7 0.0 1.0 0.00 0.00 0.00 79 1019.1
20260501191503 60 7 0.0 1.0 0.00 0.00 0.00 79 1019.1
20260501191403 60 7 0.0 1.0 0.00 0.00 0.00 79 1019.1
20260501191303 60 7 0.0 1.0 0.00 0.00 0.00 79 1019.2
20260501191203 60 7 0.0 1.0 0.00 0.00 0.00 79 1019.2
20260501191103 60 7 0.0 1.0 0.00 0.00 0.00 79 1019.1
20260501191024 60 7 0.0 1.0 0.00 0.00 0.00 79 1019.1
20260501190903 60 7 0.0 1.0 0.00 0.00 0.00 79 1019.2
20260501190803 60 7 0.0 1.0 0.00 0.00 0.00 79 1019.2
20260501190703 60 7 0.0 1.0 0.00 0.00 0.00 79 1019.1
20260501190624 60 7 0.0 1.0 0.00 0.00 0.00 79 1019.3
20260501190503 60 7 0.0 1.0 0.00 0.00 0.00 79 1019.1
20260501190403 60 0 0.0 0.0 0.00 0.00 0.00 79 1019.2
20260501190303 60 0 0.0 0.0 0.00 0.00 0.00 79 1019.2
20260501190203 60 0 0.0 0.0 0.00 0.00 0.00 79 1019.2
20260501190124 60 0 0.0 0.0 0.00 0.00 0.00 79 1019.2
20260501190003 60 7 0.0 1.0 0.00 0.00 0.00 79 1019.2
20260501185904 60 7 0.0 1.0 0.00 0.00 0.00 79 1019.1
20260501185803 60 7 0.0 1.0 0.00 0.00 0.00 78 1019.1
20260501185703 60 7 0.0 1.0 0.00 0.00 0.00 78 1019.0
20260501185603 60 7 0.0 1.0 0.00 0.00 0.00 78 1019.3
20260501185503 60 7 0.0 1.0 0.00 0.00 0.00 78 1019.3
20260501185403 60 7 0.0 1.0 0.00 0.00 0.00 78 1019.1
20260501185306 60 7 0.0 1.0 0.00 0.00 0.00 78 1019.0
20260501185203 60 7 0.0 1.0 0.00 0.00 0.00 78 1019.0
20260501185103 60 7 0.0 1.0 0.00 0.00 0.00 78 1018.9
20260501185024 60 7 0.0 1.0 0.00 0.00 0.00 78 1019.1
20260501184903 60 7 0.0 1.0 0.00 0.00 0.00 78 1019.0
20260501184803 60 7 0.0 1.0 0.00 0.00 0.00 78 1019.0
20260501184703 60 7 0.0 1.0 0.00 0.00 0.00 78 1019.0
20260501184624 60 7 0.0 1.0 0.00 0.00 0.00 78 1019.0
20260501184503 60 6 0.0 1.0 0.00 0.00 0.00 78 1019.0
20260501184424 60 6 0.0 1.0 0.00 0.00 0.00 78 1019.0
20260501184324 60 6 0.0 1.0 0.00 0.00 0.00 78 1019.1
20260501184203 60 6 0.0 1.0 0.00 0.00 0.00 78 1019.0
20260501184103 60 6 1.0 2.0 0.00 0.00 0.00 78 1019.1
20260501184003 60 6 1.0 2.0 0.00 0.00 0.00 78 1019.0
20260501183924 60 6 1.0 4.0 0.00 0.00 0.00 78 1019.0
20260501183803 60 4 1.0 4.0 0.00 0.00 0.00 78 1019.0
20260501183703 60 5 1.0 4.0 0.00 0.00 0.00 78 1019.1
20260501183603 60 5 1.0 4.0 0.00 0.00 0.00 78 1019.0
20260501183503 60 5 1.0 4.0 0.00 0.00 0.00 78 1019.1
20260501183403 60 5 1.0 4.0 0.00 0.00 0.00 78 1019.1
20260501183324 60 5 1.0 4.0 0.00 0.00 0.00 78 1018.9
20260501183203 60 5 1.0 4.0 0.00 0.00 0.00 77 1019.0
20260501183103 60 5 1.0 4.0 0.00 0.00 0.00 77 1019.0
20260501183003 60 5 1.0 4.0 0.00 0.00 0.00 77 1019.2
20260501182924 60 5 1.0 4.0 0.00 0.00 0.00 77 1019.2
20260501182803 61 7 0.0 2.0 0.00 0.00 0.00 78 1019.2
20260501182703 61 6 0.0 1.0 0.00 0.00 0.00 78 1019.2
20260501182603 61 7 0.0 1.0 0.00 0.00 0.00 78 1019.2
20260501182503 61 8 0.0 1.0 0.00 0.00 0.00 78 1019.2
20260501182424 61 8 0.0 1.0 0.00 0.00 0.00 78 1019.2
20260501182306 61 10 0.0 2.0 0.00 0.00 0.00 78 1019.2
20260501182203 61 10 0.0 2.0 0.00 0.00 0.00 78 1019.2
20260501182103 61 10 0.0 2.0 0.00 0.00 0.00 78 1019.3
20260501182003 61 10 0.0 2.0 0.00 0.00 0.00 78 1019.1
20260501181924 61 11 0.0 2.0 0.00 0.00 0.00 78 1019.1
20260501181803 61 11 1.0 2.0 0.00 0.00 0.00 78 1019.3
20260501181703 61 11 1.0 2.0 0.00 0.00 0.00 78 1019.0
20260501181603 61 11 1.0 2.0 0.00 0.00 0.00 78 1019.2
20260501181524 61 11 1.0 2.0 0.00 0.00 0.00 78 1019.4
20260501181403 61 11 1.0 2.0 0.00 0.00 0.00 78 1019.3
20260501181303 61 10 1.0 3.0 0.00 0.00 0.00 78 1019.2
20260501181203 61 7 1.0 3.0 0.00 0.00 0.00 78 1019.0
20260501181103 61 6 1.0 3.0 0.00 0.00 0.00 78 1019.1
20260501181004 61 5 1.0 3.0 0.00 0.00 0.00 78 1019.2
20260501180903 61 2 2.0 4.0 0.00 0.00 0.00 77 1019.3
20260501180803 61 360 2.0 4.0 0.00 0.00 0.00 78 1019.2
20260501180703 61 359 2.0 4.0 0.00 0.00 0.00 78 1019.2
20260501180603 60 360 2.0 4.0 0.00 0.00 0.00 78 1019.1
20260501180503 60 359 2.0 4.0 0.00 0.00 0.00 78 1019.1
20260501180424 60 359 2.0 4.0 0.00 0.00 0.00 78 1019.1
20260501180303 60 358 2.0 4.0 0.00 0.00 0.00 78 1019.1
20260501180203 61 358 2.0 4.0 0.00 0.00 0.00 78 1018.9
20260501180024 61 360 2.0 4.0 0.00 0.00 0.00 78 1019.2
20260501175903 61 360 2.0 4.0 0.00 0.00 0.00 77 1019.1
20260501175803 61 3 2.0 4.0 0.00 0.00 0.00 77 1019.2
20260501175703 61 5 2.0 3.0 0.00 0.00 0.00 77 1019.0
20260501175604 61 7 2.0 3.0 0.00 0.00 0.00 77 1019.1
20260501175503 61 6 2.0 3.0 0.00 0.00 0.00 77 1019.1
20260501175403 61 8 2.0 3.0 0.00 0.00 0.00 77 1019.1
20260501175306 61 9 2.0 3.0 0.00 0.00 0.00 77 1018.9
20260501175224 61 9 2.0 3.0 0.00 0.00 0.00 77 1018.9
20260501175103 61 9 2.0 3.0 0.00 0.00 0.00 77 1019.1
20260501175024 61 7 2.0 3.0 0.00 0.00 0.00 77 1019.0
20260501174903 61 6 2.0 4.0 0.00 0.00 0.00 77 1019.2
20260501174803 61 7 2.0 4.0 0.00 0.00 0.00 77 1019.0
20260501174703 61 5 2.0 4.0 0.00 0.00 0.00 78 1019.0
20260501174624 61 5 2.0 4.0 0.00 0.00 0.00 78 1019.0
20260501174503 61 4 2.0 4.0 0.00 0.00 0.00 77 1019.1
20260501174424 61 4 2.0 4.0 0.00 0.00 0.00 78 1019.0
20260501174324 61 2 2.0 4.0 0.00 0.00 0.00 78 1019.0
20260501174203 61 3 2.0 4.0 0.00 0.00 0.00 78 1018.9
20260501174124 61 3 2.0 4.0 0.00 0.00 0.00 78 1019.0
20260501174024 61 3 2.0 4.0 0.00 0.00 0.00 78 1018.9
20260501173903 61 3 2.0 6.0 0.00 0.00 0.00 78 1019.1
20260501173803 61 2 2.0 6.0 0.00 0.00 0.00 78 1018.9
20260501173724 61 2 2.0 6.0 0.00 0.00 0.00 78 1018.9
20260501173603 61 4 2.0 6.0 0.00 0.00 0.00 77 1019.1
20260501173524 61 4 2.0 6.0 0.00 0.00 0.00 77 1019.1
20260501173403 61 4 2.0 6.0 0.00 0.00 0.00 77 1018.9
20260501173303 61 4 2.0 6.0 0.00 0.00 0.00 78 1019.1
20260501173203 61 4 2.0 6.0 0.00 0.00 0.00 77 1018.9
20260501173103 61 5 3.0 6.0 0.00 0.00 0.00 77 1019.0
20260501173003 61 5 3.0 6.0 0.00 0.00 0.00 77 1019.0
20260501172903 61 3 3.0 6.0 0.00 0.00 0.00 77 1019.1
20260501172803 61 4 3.0 4.0 0.00 0.00 0.00 77 1019.0
20260501172703 61 1 2.0 4.0 0.00 0.00 0.00 77 1019.2
20260501172624 61 1 2.0 4.0 0.00 0.00 0.00 77 1019.2
20260501172503 61 360 2.0 4.0 0.00 0.00 0.00 77 1019.0
20260501172403 61 358 2.0 4.0 0.00 0.00 0.00 77 1019.0
20260501172305 61 356 2.0 4.0 0.00 0.00 0.00 77 1019.1
20260501172203 62 356 2.0 4.0 0.00 0.00 0.00 77 1019.1
20260501172103 62 356 2.0 4.0 0.00 0.00 0.00 76 1019.2
20260501172003 62 354 1.0 4.0 0.00 0.00 0.00 76 1019.2
20260501171903 62 355 1.0 3.0 0.00 0.00 0.00 76 1019.1
20260501171803 62 353 1.0 3.0 0.00 0.00 0.00 76 1019.0
20260501171703 62 353 1.0 3.0 0.00 0.00 0.00 75 1019.1
20260501171603 62 355 1.0 3.0 0.00 0.00 0.00 76 1019.1
20260501171503 62 355 1.0 3.0 0.00 0.00 0.00 76 1019.1
20260501171424 62 356 1.0 3.0 0.00 0.00 0.00 75 1019.1
20260501171303 63 358 1.0 6.0 0.00 0.00 0.00 75 1019.0
20260501171203 63 358 1.0 6.0 0.00 0.00 0.00 76 1019.0
20260501171103 63 358 2.0 6.0 0.00 0.00 0.00 76 1019.0
20260501171003 63 359 2.0 6.0 0.00 0.00 0.00 76 1018.9
20260501170903 63 358 2.0 6.0 0.00 0.00 0.00 76 1019.0
20260501170803 62 360 2.0 6.0 0.00 0.00 0.00 76 1019.0
20260501170703 62 1 2.0 6.0 0.00 0.00 0.00 76 1019.0
20260501170603 62 2 2.0 6.0 0.00 0.00 0.00 76 1019.0
20260501170524 62 2 2.0 6.0 0.00 0.00 0.00 76 1019.0
20260501170424 62 2 2.0 6.0 0.00 0.00 0.00 76 1018.7
20260501170303 62 1 2.0 6.0 0.00 0.00 0.00 76 1018.9
20260501170203 62 1 2.0 6.0 0.00 0.00 0.00 76 1018.9
20260501170124 62 2 3.0 6.0 0.00 0.00 0.00 75 1018.8
20260501170003 62 2 2.0 6.0 0.00 0.00 0.00 76 1019.1
20260501165903 63 2 3.0 6.0 0.00 0.00 0.00 75 1018.9
20260501165803 63 360 3.0 6.0 0.00 0.00 0.00 75 1018.8
20260501165703 63 358 3.0 6.0 0.00 0.00 0.00 75 1018.9
20260501165603 63 359 3.0 7.0 0.00 0.00 0.00 74 1019.0
20260501165503 63 359 3.0 7.0 0.00 0.00 0.00 74 1019.0
20260501165424 63 359 3.0 7.0 0.00 0.00 0.00 74 1019.0
20260501165306 63 360 3.0 7.0 0.00 0.00 0.00 73 1018.8
20260501165203 63 1 3.0 7.0 0.00 0.00 0.00 73 1019.0
20260501165124 63 1 3.0 7.0 0.00 0.00 0.00 73 1019.0
20260501165003 63 360 3.0 7.0 0.00 0.00 0.00 73 1018.8
20260501164903 63 1 3.0 7.0 0.00 0.00 0.00 74 1018.9
20260501164824 64 360 3.0 7.0 0.00 0.00 0.00 74 1018.8
20260501164704 64 360 3.0 7.0 0.00 0.00 0.00 72 1018.8
20260501164624 64 359 3.0 7.0 0.00 0.00 0.00 71 1018.9
20260501164503 64 360 3.0 7.0 0.00 0.00 0.00 73 1018.9
20260501164403 64 355 3.0 7.0 0.00 0.00 0.00 74 1018.9
20260501164303 64 356 3.0 7.0 0.00 0.00 0.00 74 1019.0
20260501164204 64 355 3.0 7.0 0.00 0.00 0.00 73 1018.7
20260501164103 64 354 2.0 7.0 0.00 0.00 0.00 73 1018.8
20260501164003 64 355 2.0 7.0 0.00 0.00 0.00 74 1019.0
20260501163904 64 354 2.0 7.0 0.00 0.00 0.00 74 1018.8
20260501163824 64 354 2.0 7.0 0.00 0.00 0.00 74 1018.8
20260501163703 64 358 2.0 7.0 0.00 0.00 0.00 73 1019.0
20260501163603 64 352 2.0 6.0 0.00 0.00 0.00 74 1018.8